Location: York
(31.8935°S, 116.7682°E)
Time: 23:37:14
(UTC+08:00)

Envisat - Pass Details

Date: 15 May 2021
Orbit: 764 x 766 km, 98.1° (Epoch: 14 June)

Event Time Altitude Azimuth Distance (km) Brightness Sun altitude
Rises 04:44:30 0° 20° (NNE) 3,216 6.6 -27.5°
Reaches altitude 10° 04:46:48 10° 23° (NNE) 2,298 5.8 -27.0°
Maximum altitude 04:51:50 68° 104° (ESE) 832 3.2 -25.9°
Enters shadow 04:55:26 20° 183° (S) 1,748 4.7 -25.2°
